Montague, CA

6:07 PM PDT on March 27, 2017 (GMT -0700)
Siskiyou County

Weather History for KSIY - October, 2014

Change the Weather History Date:

Friday, October 31, 2014

  Actual Average Record
Temperature  
Mean Temperature 51 °F 46 °F  
Max Temperature 59 °F 58 °F 77 °F (1959)
Min Temperature 43 °F 33 °F 12 °F (2002)
Degree Days  
Heating Degree Days 14 19  
Month to date heating degree days 289 411  
Since 1 July heating degree days 335 553  
Cooling Degree Days 0 0  
Month to date cooling degree days 0 2  
Year to date cooling degree days 913 544  
Moisture  
Dew Point 43 °F    
Average Humidity 79    
Maximum Humidity 96    
Minimum Humidity 57    
Precipitation  
Precipitation 0.41 in 0.07 in 1.88 in (1996)
Month to date precipitation 2.03 1.20  
Year to date precipitation 9.58 12.84  
Sea Level Pressure  
Sea Level Pressure 29.83 in    
Wind  
Wind Speed 5 mph (WNW)    
Max Wind Speed 23 mph    
Max Gust Speed 29 mph    
Visibility 9 miles    
Events Rain    
T = Trace of Precipitation, MM = Missing Value Source: NWS Daily Summary

Daily Weather History Graph

Daily Weather History Graph

Search for Another Location

Airport or City:

Trip Planner

Search our weather history database for the weather conditions in past years. The results will help you decide how hot, cold, wet, or windy it might be!

Date:

Astronomy

Oct. 31, 2014 Rise Set
Actual Time 7:41 AM PDT 6:05 PM PDT
Civil Twilight 7:12 AM PDT 6:34 PM PDT
Nautical Twilight 6:39 AM PDT 7:06 PM PDT
Astronomical Twilight 6:06 AM PDT 7:39 PM PDT
Moon 2:28 PM PDT (10/31) 12:30 AM PDT (10/31)
Length of Visible Light 11h 22m
Length of Day
10h 24m
First Quarter, 58% of the Moon is Illuminated
Oct 31
First Quarter
Nov 6
Full
Nov 14
Last Quarter
Nov 22
New
Nov 29
First Quarter

Hourly Weather History & Observations

Time (PDT) Temp. Windchill Dew Point Humidity Pressure Visibility Wind Dir Wind Speed Gust Speed Precip Events Conditions
12:53 AM 57.9 °F - 43.0 °F 58% 29.79 in 10.0 mi South 19.6 mph 26.5 mph N/A   Clear
1:53 AM 57.9 °F - 44.1 °F 60% 29.78 in 10.0 mi South 19.6 mph 27.6 mph 0.00 in Rain Light Rain
2:09 AM 55.0 °F - 48.0 °F 77% 29.81 in 10.0 mi West 17.3 mph - 0.00 in   Overcast
2:17 AM 55.0 °F - 48.0 °F 77% 29.81 in 10.0 mi West 10.4 mph - 0.00 in   Overcast
2:53 AM 53.1 °F - 48.0 °F 83% 29.78 in 10.0 mi SE 6.9 mph - 0.00 in Rain Light Rain
3:53 AM 53.1 °F - 46.9 °F 80% 29.76 in 10.0 mi South 9.2 mph - 0.00 in   Mostly Cloudy
4:53 AM 55.9 °F - 44.1 °F 64% 29.75 in 10.0 mi South 13.8 mph - N/A   Overcast
5:53 AM 54.0 °F - 46.0 °F 75% 29.77 in 10.0 mi SW 9.2 mph - 0.00 in Rain Light Rain
6:53 AM 50.0 °F - 46.0 °F 86% 29.80 in 5.0 mi WNW 15.0 mph - 0.06 in Rain Rain
7:53 AM 48.0 °F - 43.0 °F 83% 29.84 in 8.0 mi West 10.4 mph - 0.04 in Rain Rain
8:53 AM 46.9 °F - 44.1 °F 90% 29.89 in 5.0 mi ESE 4.6 mph - 0.11 in Rain Rain
9:31 AM 46.9 °F - 42.1 °F 83% 29.89 in 2.5 mi Calm Calm - 0.11 in Rain Heavy Rain
9:39 AM 46.9 °F - 42.1 °F 83% 29.89 in 4.0 mi ENE 4.6 mph - 0.13 in Rain Heavy Rain
9:53 AM 46.0 °F 44.8 °F 42.1 °F 86% 29.91 in 5.0 mi ENE 3.5 mph - 0.16 in Rain Rain
10:53 AM 46.9 °F - 41.0 °F 80% 29.89 in 10.0 mi Calm Calm - 0.03 in Rain Light Rain
11:53 AM 48.0 °F - 39.9 °F 74% 29.88 in 10.0 mi NNW 3.5 mph - 0.01 in Rain Light Rain
12:53 PM 48.0 °F - 39.9 °F 74% 29.87 in 10.0 mi NW 3.5 mph - 0.00 in   Overcast
1:53 PM 48.9 °F - 41.0 °F 74% 29.86 in 10.0 mi Calm Calm - N/A   Overcast
2:11 PM 48.9 °F - 39.9 °F 71% 29.85 in 10.0 mi Calm Calm - N/A   Overcast
2:35 PM 48.9 °F - 41.0 °F 74% 29.83 in 10.0 mi NW 3.5 mph - 0.00 in   Mostly Cloudy
2:53 PM 50.0 °F - 41.0 °F 71% 29.84 in 10.0 mi NW 4.6 mph - 0.00 in   Scattered Clouds
3:53 PM 50.0 °F - 41.0 °F 71% 29.85 in 10.0 mi Calm Calm - N/A   Overcast
4:53 PM 50.0 °F - 41.0 °F 71% 29.81 in 10.0 mi North 9.2 mph - N/A   Partly Cloudy
5:53 PM 48.9 °F - 42.1 °F 77% 29.82 in 10.0 mi Calm Calm - N/A   Partly Cloudy
6:53 PM 46.0 °F 44.8 °F 42.1 °F 86% 29.81 in 10.0 mi North 3.5 mph - N/A   Clear
7:53 PM 46.0 °F 44.8 °F 42.1 °F 86% 29.82 in 10.0 mi East 3.5 mph - N/A   Clear
8:53 PM 44.1 °F 42.5 °F 42.1 °F 93% 29.82 in 10.0 mi ESE 3.5 mph - N/A   Clear
9:53 PM 44.1 °F 42.5 °F 41.0 °F 89% 29.81 in 10.0 mi NNW 3.5 mph - N/A   Clear
10:53 PM 43.0 °F - 41.0 °F 93% 29.81 in 10.0 mi Calm Calm - N/A   Mostly Cloudy
11:53 PM 44.1 °F - 41.0 °F 89% 29.80 in 10.0 mi Calm Calm - N/A   Overcast